Weather History for Hanford, CA

Change the Weather History Date:

Monday, April 8, 2013

  Actual Average Record
Temperature  
Mean Temperature 59 °F 59 °F  
Max Temperature 69 °F 73 °F 90 °F (2014)
Min Temperature 49 °F 45 °F 34 °F (2001)
Degree Days  
Heating Degree Days 6    
Month to date heating degree days 18  
Since 1 July heating degree days 2264  
Cooling Degree Days 0    
Month to date cooling degree days 0  
Year to date cooling degree days 6  
Growing Degree Days 7 (Base 50)    
Moisture  
Dew Point 38 °F    
Average Humidity 50    
Maximum Humidity 71    
Minimum Humidity 29    
Precipitation  
Precipitation 0.01 in 0.03 in 0.29 in (1999)
Month to date precipitation 0.08 0.21  
Year to date precipitation 1.42 5.61  
Since 1 July precipitation 3.42 8.95  
Snow  
Snow 0.00 in - - ()
Month to date snowfall 0.0  
Since 1 July snowfall 0.0  
Snow Depth 0.00 in    
Sea Level Pressure  
Sea Level Pressure 29.84 in    
Wind  
Wind Speed 12 mph (NNW)    
Max Wind Speed 28 mph    
Max Gust Speed 36 mph    
Visibility 9 miles    
Events Rain    
T = Trace of Precipitation, MM = Missing Value Source: NWS Daily Summary

Daily Weather History Graph

Daily Weather History Graph

Search for Another Location

Airport:

Trip Planner

Search our weather history database for the weather conditions in past years. The results will help you decide how hot, cold, wet, or windy it might be!

Date:

Astronomy

Apr. 08, 2013 Rise Set
Actual Time 6:34 AM PDT 7:26 PM PDT
Civil Twilight 6:08 AM PDT 7:53 PM PDT
Nautical Twilight 5:37 AM PDT 8:24 PM PDT
Astronomical Twilight 5:05 AM PDT 8:56 PM PDT
Moon 5:24 AM PDT (4/8) 6:07 PM PDT (4/8)
Length of Visible Light 13h 45m
Length of Day
12h 52m
Waning Crescent, 3% of the Moon is Illuminated
Apr 8
Waning Crescent
Apr 10
New
Apr 18
First Quarter
Apr 25
Full
May 2
Last Quarter

Hourly Weather History & Observations

Time (PDT) Temp. Dew Point Humidity Pressure Visibility Wind Dir Wind Speed Gust Speed Precip Events Conditions
12:53 AM 57.9 °F 43.0 °F 58% 29.85 in 10.0 mi NNW 11.5 mph - N/A   Mostly Cloudy
1:53 AM 55.0 °F 44.1 °F 67% 29.81 in 10.0 mi WNW 4.6 mph - N/A   Clear
2:53 AM 55.9 °F 43.0 °F 62% 29.81 in 10.0 mi North 4.6 mph - N/A   Overcast
3:53 AM 55.0 °F 43.0 °F 64% 29.78 in 10.0 mi NNW 6.9 mph - 0.00 in   Overcast
4:53 AM 53.1 °F 34.0 °F 48% 29.78 in 10.0 mi WNW 19.6 mph 27.6 mph N/A   Clear
5:53 AM 50.0 °F 35.1 °F 57% 29.78 in 10.0 mi WNW 10.4 mph 19.6 mph N/A   Scattered Clouds
6:53 AM 51.1 °F 37.0 °F 59% 29.81 in 10.0 mi NW 13.8 mph - N/A   Overcast
7:53 AM 50.0 °F 39.9 °F 68% 29.84 in 10.0 mi NW 15.0 mph 23.0 mph N/A   Overcast
8:34 AM 51.8 °F 41.0 °F 67% 29.85 in 10.0 mi NW 10.4 mph - N/A   Overcast
8:53 AM 50.0 °F 41.0 °F 71% 29.87 in 10.0 mi NW 8.1 mph - N/A   Overcast
9:40 AM 48.2 °F 44.6 °F 87% 29.86 in 2.5 mi NW 16.1 mph 28.8 mph 0.01 in Rain Light Rain
9:48 AM 48.2 °F 44.6 °F 87% 29.86 in 6.0 mi NNW 10.4 mph 21.9 mph 0.01 in Rain Light Rain
9:53 AM 48.9 °F 45.0 °F 86% 29.87 in 8.0 mi NNW 13.8 mph 21.9 mph 0.01 in Rain Light Rain
10:51 AM 50.0 °F 42.8 °F 76% 29.87 in 6.0 mi North 10.4 mph 24.2 mph 0.00 in Rain Light Rain
10:53 AM 51.1 °F 42.1 °F 71% 29.87 in 6.0 mi NNW 11.5 mph 24.2 mph 0.00 in Rain Light Rain
11:53 AM 57.0 °F 39.9 °F 53% 29.86 in 10.0 mi NNW 15.0 mph 25.3 mph 0.00 in   Overcast
12:53 PM 61.0 °F 36.0 °F 39% 29.85 in 10.0 mi NNW 17.3 mph 27.6 mph N/A   Mostly Cloudy
1:53 PM 64.0 °F 35.1 °F 34% 29.84 in 10.0 mi North 13.8 mph 29.9 mph N/A   Scattered Clouds
2:53 PM 64.0 °F 37.0 °F 37% 29.82 in 10.0 mi North 16.1 mph 26.5 mph N/A   Mostly Cloudy
3:53 PM 66.0 °F 36.0 °F 33% 29.80 in 10.0 mi NNW 10.4 mph 21.9 mph N/A   Overcast
4:53 PM 66.0 °F 34.0 °F 30% 29.80 in 10.0 mi NW 23.0 mph 31.1 mph N/A   Overcast
5:53 PM 66.9 °F 33.1 °F 28% 29.81 in 8.0 mi NW 20.7 mph 28.8 mph N/A   Overcast
6:53 PM 64.9 °F 32.0 °F 29% 29.83 in 10.0 mi NW 12.7 mph - N/A   Mostly Cloudy
7:53 PM 62.1 °F 30.9 °F 31% 29.84 in 10.0 mi NNW 12.7 mph - N/A   Clear
8:53 PM 59.0 °F 32.0 °F 36% 29.86 in 10.0 mi NNW 4.6 mph - N/A   Clear
9:53 PM 57.9 °F 30.9 °F 36% 29.86 in 10.0 mi NNW 6.9 mph - N/A   Clear
10:53 PM 59.0 °F 30.9 °F 35% 29.87 in 10.0 mi NNW 20.7 mph 31.1 mph N/A   Clear
11:53 PM 55.9 °F 32.0 °F 40% 29.88 in 10.0 mi NNW 12.7 mph - N/A   Clear